User: anonymous   Login
Location: Unspecified
(0.0000°N, 0.0000°E)
Time: 13:17:26
(UTC+00:00)
Language:

NNS O-23 - Orbit

View from above orbital plane
View from above orbital plane
View from above satellite
View from above satellite

Ground track
Ground track

The orbit data is extracted from the following two-line orbital elements,

1 19070U 88033A   17086.56085503 +.00000033 +00000-0 +50097-4 0  9994
2 19070 090.3571 270.5745 0191306 027.8910 033.1837 13.27403531400335
Epoch (UTC): 27 March 2017 13:27:37
Eccentricity: 0.0191306
inclination: 90.3571°
perigee height: 1012 km
apogee height: 1301 km
right ascension of ascending node: 270.5745°
argument of perigee: 27.8910°
revolutions per day: 13.27403531
mean anomaly at epoch: 33.1837°
orbit number at epoch: 40033

The dashed part of the orbit path shows where the satellite is in the earth's shadow,  

DLR